Voltar ao catálogo

STARLINK-37728

AtivoComunicaçõesSSO
NORAD 69221·PAYLOAD·🇺🇸 United States

Lançado May 26, 2026 de Vandenberg Space Force Base

Loading…

Próximas Passagens (próximas 24 horas)

TLE

AtualizadoSource: CelesTrak SupGP

Época: Sep 14, 2026, 23:33 UTC

1 69221C 26115L   26257.98173611  .00079199  00000+0  24573-2 0  2577
2 69221  97.2834 274.1503 0001575  98.5919 284.6717 15.33414387    11

Acompanhe STARLINK-37728 em tempo real com AllMySat

Download on the App Store